OPS 4682 DEB, 38362

Orbit data source: Space-Track

OPS 4682 DEB, 38362 is space debris in LEO originally from a launch on Sat, 03 Apr 1965 UTC launched from the Air Force Western Test Range (AFWTR). Debris objects in space refer to the collection of defunct objects orbiting the Earth. Examples of debris include non-operational satellites, rocket bodies, and fragments generated from explosions, collisions, or faulty payload assembly.

Loading next visibility...
Identifier
38362, 1965-027BP
Orbit
LEO
Country
Flag of USUS
Related business
Manufacturer
Unknown
Mission
Spacecraft
Bus & Motor
Unknown
Mass
Unknown
Launch date (UTC)
1965-04-03 (61 years ago)
Launch vehicle
Unknown
Launch site
Air Force Western Test Range (AFWTR)
Object type
Payload
Rocket body
Debris
Shape & HBR
Unknown shape, 0.1 m
Radar Cross Section
Medium (>0.1 m² and <1 m²)

Expand to show TLE details & history
Last TLE update: 13 hours ago

TLE from 13 hours ago
0 OPS 4682 DEB
1 38362U 65027BP  26263.58965269  .00000342  00000-0  11536-2 0  9998
2 38362  90.2559  13.1754 0044950 226.7818 132.9545 12.97112138475764
Epoch: 2026-09-20T14:09Z
TLE epoch observation values (Epoch: 2026-09-20T14:09:05.992Z)
Latitude
-0.00005°
Longitude
161.41877°
Altitude
1,299.825 km
Speed
7.195 km/s
True Right ascension
00h 52m 42s
True Declination
0° 00' 00"
Sunlit
Object was in full shadow at epoch
Visualization orbit readout
Latitude
Unknown
Longitude
Unknown
Altitude
Unknown
Speed
Unknown
Apparent Right ascension
Unknown
Apparent Declination
Unknown
Sunlit
N/A
Visualization observer readout
Local Sidereal Time
19:47:04
Azimuth
Unknown
Elevation
Unknown
Doppler factor
Unknown
Orbital elements
Apogee altitude
1,304.935 km
Perigee altitude
1,236.173 km
Semi-major axis
7,648.691 km
Eccentricity
0.0045
Inclination
90.2559°
RAAN
13.1754°
Arg. of periapsis
226.7818°
True anomaly
133.33005°
Mean anomaly
132.9545°
Eccentric anomaly
133.14242°
Mean motion
3.24461 °/min
Orbital period
110.95 mins
BSTAR
0.0011536
Loading maneuver chart data...
Computing Atmospheric mass density...
Loading historical data...
Loading historical data...
Loading historical data...
Loading historical data...
Loading historical data...
Loading historical data...
Loading historical data...

Documentation

Showing up to 5 results
|